Dewpoint
57 58 59 59 59 59 58 58 59 59 59 59 59 59 57 56 56 54 37 35 40 60 55 36 30 29 23 24 26 23 23 23 21 25 38 51 50 53 55 54 54 56 56 59 63
57 58 58 58 58 58 58 58 58 58 58 59 59 58 57 57 52 45 53 59 60 61 32 25 23 21 21 22 25 21 24 22 21 30 43 50 50 52 54 51 54 57 60 62 62
57 57 58 58 58 58 57 57 57 58 58 58 58 57 57 57 41 35 62 62 65 51 27 26 22 20 20 22 24 22 22 22 20 23 44 50 51 53 52 50 53 54 59 60 60
56 57 58 58 57 57 57 57 57 57 57 57 57 57 58 53 30 35 65 64 65 28 24 23 23 21 20 22 24 22 22 23 17 39 49 50 51 52 50 51 54 55 59 59 59
57 57 57 57 57 57 57 57 57 57 56 57 57 57 52 29 10 56 66 66 45 24 21 23 21 21 19 18 20 20 17 17 17 40 49 51 50 50 52 54 55 57 59 59 59
57 57 57 57 56 56 56 56 56 56 57 57 56 57 41 18 37 57 52 41 28 23 20 25 23 21 20 17 16 17 15 15 21 23 43 49 51 51 53 55 55 57 58 59 59
57 57 56 56 56 56 56 55 55 56 58 56 56 53 36 23 38 46 34 27 27 19 18 25 23 20 20 18 17 16 15 24 39 39 47 48 48 49 53 54 54 55 57 58 60
56 56 56 56 56 56 55 55 55 57 57 57 57 50 29 35 41 34 28 25 24 22 16 19 21 22 20 19 17 15 17 16 38 43 47 44 32 46 53 53 53 55 56 57 59
56 56 55 55 55 55 54 54 55 57 57 58 50 46 23 44 37 33 25 29 29 25 26 24 24 21 19 16 15 17 15 15 37 38 46 43 35 43 53 52 51 55 56 56 58
56 55 55 55 55 54 53 54 55 54 53 53 48 37 32 30 26 33 34 29 24 27 23 21 21 19 19 14 10 14 15 15 24 37 44 40 40 45 53 52 49 52 55 56 57
56 55 54 54 54 53 49 39 34 33 37 32 29 29 23 19 22 25 32 30 26 20 14 18 14 15 16 18 17 17 16 16 17 19 41 42 39 40 51 53 49 49 52 55 57
56 55 55 54 53 53 44 35 32 32 34 35 36 34 28 22 16 20 31 28 26 21 14 12 14 16 15 15 14 15 15 15 14 15 36 38 41 42 46 52 51 50 51 52 55
55 54 54 53 52 45 43 35 37 40 36 28 26 23 19 19 18 19 29 24 24 21 14 12 11 14 13 14 14 15 14 15 13 15 17 17 24 30 37 46 52 52 52 52 53
55 54 54 52 41 43 31 39 39 40 21 19 26 24 18 18 18 20 25 21 14 19 14 12 10 10 12 12 14 15 15 13 14 15 11 20 10 24 34 45 48 50 52 51 52
54 54 54 52 43 34 30 38 41 38 16 22 27 25 20 19 20 20 22 19 23 13 13 8 16 14 16 16 17 15 16 16 17 18 17 17 12 16 35 36 44 49 51 51 51
54 54 53 47 45 40 40 39 36 21 12 21 21 20 19 19 15 16 17 19 18 15 16 12 15 17 15 18 17 20 19 20 21 19 14 16 14 12 21 27 31 43 48 50 50
54 53 52 48 35 39 40 34 21 13 19 22 18 18 18 17 14 17 18 21 20 19 18 17 15 17 19 17 20 20 22 15 13 12 11 21 16 16 28 29 31 29 39 47 51
53 51 49 48 46 43 35 30 18 14 20 23 19 22 18 17 18 16 19 17 20 22 20 18 14 17 21 18 17 21 24 13 14 12 9 23 18 15 28 29 30 39 40 41 50
50 45 44 45 48 44 33 19 14 19 22 18 21 22 22 23 26 22 33 30 19 23 19 21 18 23 25 23 25 22 20 21 22 23 18 16 21 22 31 34 37 40 44 43 44
47 46 41 47 48 40 29 25 17 22 25 24 20 21 21 22 27 27 34 38 38 27 26 25 21 21 25 26 27 26 24 22 23 20 17 16 20 15 23 29 37 39 43 47 47
48 30 32 47 46 39 21 26 24 26 28 25 23 21 23 22 27 35 36 37 42 37 26 27 27 23 24 23 20 24 24 27 29 26 17 17 17 35 37 38 38 38 43 52 54
44 18 45 46 38 39 33 32 35 31 31 28 28 26 24 24 27 35 34 38 42 43 32 31 32 25 22 23 27 26 24 26 21 27 27 27 23 30 40 40 42 41 49 56 60
31 33 45 46 33 35 38 34 33 31 30 30 28 27 29 26 32 37 37 40 43 43 40 39 32 26 26 31 32 31 29 33 36 36 33 27 25 34 42 44 47 48 54 59 61
41 25 42 44 41 37 36 32 32 33 33 32 31 30 29 26 32 35 37 42 42 44 50 45 39 30 26 26 31 33 30 31 36 29 26 28 32 34 40 44 49 52 57 59 61
43 29 44 38 39 39 37 35 33 32 35 35 33 32 28 29 28 33 38 39 39 46 45 45 37 41 38 37 38 36 34 32 32 31 30 31 35 37 42 45 52 54 58 59 59
39 43 46 44 43 40 39 37 35 35 35 34 34 34 33 32 29 32 35 34 32 38 41 44 38 41 30 36 37 38 36 34 31 32 34 36 38 42 46 53 52 54 57 58 59
47 49 47 43 40 37 38 38 38 40 39 37 37 37 29 33 34 36 38 42 42 40 41 41 38 34 22 35 33 25 31 33 35 38 37 35 37 46 50 52 54 55 56 57 59
Lifted_Index
11 11 10 10 11 11 11 11 12 12 12 12 12 12 13 13 12 11 11 12 13 13 13 13 12 11 10 9 8 7 5 4 3 2 1 -0 -1 -1 -2 -2 -1 -0 -0 0 0
10 10 10 10 11 11 12 12 12 12 12 12 12 12 13 12 11 10 11 12 12 13 13 12 12 11 9 8 8 7 6 5 4 3 1 -0 -1 -1 -2 -2 -1 -1 -0 0 1
10 10 10 10 11 11 12 12 12 12 12 12 12 13 13 11 9 9 10 10 11 12 13 12 12 10 9 8 7 7 6 5 5 3 1 -0 -1 -1 -1 -1 -1 -1 -0 0 1
10 10 10 11 11 11 12 12 12 12 12 12 13 13 12 10 8 7 8 9 10 12 13 12 11 10 8 8 7 6 6 6 5 3 1 -1 -1 -2 -2 -1 -1 -1 -0 0 1
10 10 11 11 11 11 11 12 12 12 12 12 12 12 11 10 8 7 7 8 10 12 12 11 10 10 9 8 7 6 6 6 5 3 1 -1 -1 -2 -2 -2 -1 -1 -1 -0 0
10 11 11 11 11 11 11 11 12 11 11 11 11 11 10 9 8 7 8 10 11 12 11 11 11 10 9 8 7 6 6 5 5 3 1 -1 -1 -2 -2 -2 -2 -1 -1 -1 -0
10 10 11 11 11 11 11 11 11 11 11 11 11 10 10 9 9 8 9 11 12 12 11 11 11 10 9 8 7 6 5 5 4 3 1 -1 -1 -1 -2 -2 -2 -2 -2 -1 -1
10 10 11 11 11 11 11 11 11 10 10 10 10 10 10 10 9 9 10 11 12 11 11 11 10 10 9 7 6 5 4 4 3 2 0 -0 -0 -1 -2 -2 -2 -2 -3 -2 -2
10 10 10 11 11 11 11 10 10 10 9 9 9 9 9 9 9 8 9 10 11 11 11 10 10 9 8 6 4 3 3 3 3 2 0 0 0 -0 -1 -2 -2 -3 -3 -3 -3
9 10 10 10 11 11 11 10 10 10 9 9 9 9 9 9 8 8 8 9 10 10 10 9 9 8 7 5 3 3 3 3 2 2 1 0 0 -0 -1 -2 -2 -3 -3 -3 -3
9 9 10 10 11 11 10 10 10 10 9 9 9 9 9 9 8 8 8 8 8 8 8 8 7 6 7 6 4 3 2 2 2 2 1 0 -0 -0 -1 -2 -2 -2 -3 -3 -3
9 9 9 10 11 11 10 10 10 10 9 8 9 9 9 9 8 8 7 7 7 7 7 6 6 6 7 7 5 4 2 2 2 2 2 1 1 0 -0 -1 -2 -2 -3 -3 -3
8 9 9 10 10 11 10 11 11 10 8 7 8 8 9 8 8 7 7 7 7 6 6 6 6 6 7 6 6 4 3 2 2 2 2 2 2 1 1 -0 -1 -2 -2 -2 -3
8 8 9 9 10 10 11 11 11 9 6 6 6 7 8 8 7 7 7 6 6 6 6 6 6 6 6 6 5 5 4 3 2 2 2 2 2 2 2 1 -0 -1 -2 -2 -2
8 8 8 9 9 10 11 11 10 7 5 4 6 7 7 8 7 7 7 6 6 6 6 6 6 6 6 6 6 5 5 4 3 2 2 2 2 2 2 1 1 -1 -1 -2 -2
7 8 8 8 8 10 11 11 8 6 4 4 5 6 6 7 7 7 7 6 6 5 5 5 6 6 6 6 6 6 5 4 3 2 2 2 2 2 2 2 1 0 -1 -1 -2
7 7 7 8 9 10 11 9 6 4 4 4 4 5 5 6 6 7 6 6 5 5 4 4 5 5 5 5 5 5 5 3 2 1 2 2 2 2 3 2 2 1 0 -0 -1
6 7 7 7 9 10 10 8 5 4 4 4 4 4 4 5 5 5 5 5 5 4 4 3 3 4 5 5 5 5 4 3 1 1 2 3 3 3 3 3 2 1 1 1 -0
6 6 6 7 8 9 8 6 5 5 5 4 4 3 4 4 4 4 4 4 4 4 3 3 3 4 5 5 5 5 4 4 3 2 2 3 3 3 2 2 2 1 1 1 1
5 6 6 6 7 8 7 6 5 5 5 4 3 3 3 3 3 2 2 2 2 3 3 3 3 3 4 4 4 4 4 4 3 2 2 2 2 2 2 1 1 1 1 1 1
5 5 6 6 7 7 6 5 6 6 5 4 3 3 3 2 2 1 1 1 1 1 2 2 2 2 3 3 4 4 4 4 3 2 2 2 2 2 2 1 1 0 -0 -1 -1
4 5 6 6 6 6 5 5 5 5 5 4 3 3 2 2 1 0 0 0 -0 -0 0 1 1 1 1 2 2 3 3 3 3 2 2 2 2 2 2 1 0 -0 -1 -3 -3
4 4 5 5 5 5 5 5 5 5 5 4 3 3 2 2 1 0 -0 -0 -0 -0 -0 0 0 0 1 1 1 2 3 3 3 2 2 2 2 2 1 0 -0 -1 -3 -4 -5
4 4 4 4 4 4 4 4 4 4 4 4 3 3 2 2 1 0 -0 -0 0 0 0 0 -0 0 0 0 1 1 1 2 2 2 2 2 1 1 0 -0 -1 -3 -4 -5 -5
3 4 3 3 3 4 4 4 4 4 4 4 3 3 2 2 2 1 -0 -0 0 1 0 0 0 0 0 1 0 0 0 1 1 1 1 1 0 0 -0 -1 -2 -3 -4 -5 -5
3 3 2 2 3 3 3 3 3 3 3 3 3 2 2 2 2 1 1 1 1 1 1 1 1 1 1 1 1 0 0 0 0 0 0 -0 -1 -1 -2 -3 -3 -4 -4 -5 -5
3 2 2 2 2 3 3 3 3 3 3 3 2 2 2 2 2 2 1 1 1 1 1 1 2 2 2 2 1 1 1 0 -0 -0 -0 -1 -1 -2 -3 -4 -4 -4 -5 -5 -5